Home > Weather > Winnipeg > Past weeks

Flag for Canada Weather for the Past 2 Weeks in Winnipeg, Manitoba, Canada

Now
9 °F

Frigid.


Feels Like: -5 °F
Forecast: -4 / 8 °F
Wind: 10 mph from Northwest

Location: Winnipeg The Forks Man

Current Time: Feb 7, 2016 at 9:10:44 PM

Latest Report: Feb 7, 2016 at 8:00 PM


Visibility: N/A

Pressure: 30.08 "Hg

Humidity: 76%

Dew point: 3 °F

Location of WinnipegLocation

Historic Weather in Winnipeg — Graph

°F

Winnipeg Temperature Yesterday

Maximum temperature yesterday: 32 °F (at 7:00 PM)
Minimum temperature yesterday: 18 °F (at 2:00 AM)
Average temperature yesterday: 25 °F

High & Low Weather Summary for the Past Weeks

 TemperatureHumidityPressure
High38 °F (Jan 27, 4:00 PM)99% (Feb 7, 7:00 AM)30.30 "Hg (Feb 7, 7:00 AM)
Low5 °F (Jan 28, 9:00 AM)62% (Jan 26, 4:00 PM)29.19 "Hg (Jan 30, 1:00 AM)
Average20 °F81%29.87 "Hg
* Reported Jan 23 7:00 PM — Feb 7 7:00 PM, Winnipeg, Weather by CustomWeather, © 2016

Note: Actual official high and low records may vary slightly from our data, if they occured in-between our weather recording intervals... More about our weather records

Advertising

Winnipeg Weather History for the Previous 24 Hours

 ConditionsComfort  
Time TempWeatherWind HumidityBarometerVisibility
7:00 PM
Sun, Feb 7
9 °FFrigid.7 mph78%30.06 "HgN/A
6:00 PM10 °FFrigid.10 mph71%30.03 "HgN/A
5:00 PM10 °FCold.8 mph78%29.98 "HgN/A
4:00 PM10 °FCold.14 mph72%29.95 "HgN/A
3:00 PM11 °FCold.12 mph74%29.89 "HgN/A
2:00 PM13 °FCold.12 mph81%29.84 "HgN/A
1:00 PM14 °FCold.13 mph77%29.82 "HgN/A
12:00 PM15 °FCold.13 mph75%29.78 "HgN/A
11:00 AM18 °FCold.12 mph82%29.72 "HgN/A
10:00 AM20 °FCold.13 mph83%29.67 "HgN/A
9:00 AM23 °FCold.9 mph89%29.61 "HgN/A
8:00 AM25 °FChilly.7 mph91%29.55 "HgN/A
7:00 AM26 °FChilly.5 mph99%29.52 "HgN/A
6:00 AM27 °FChilly.6 mph90%29.48 "HgN/A
5:00 AM27 °FChilly.7 mph90%29.45 "HgN/A
4:00 AM28 °FChilly.3 mph88%29.43 "HgN/A
3:00 AM28 °FChilly.6 mph89%29.42 "HgN/A
2:00 AM29 °FChilly.6 mph87%29.41 "HgN/A
1:00 AM32 °FChilly.5 mph82%29.39 "HgN/A
12:00 AM34 °FChilly.3 mph82%29.37 "HgN/A
11:00 PM
Sat, Feb 6
32 °FChilly.5 mph87%29.37 "HgN/A
10:00 PM30 °FChilly.3 mph88%29.40 "HgN/A
9:00 PM31 °FChilly.2 mph87%29.42 "HgN/A
Weather by CustomWeather, © 2016

See weather overviewHow to use our weather pages